Location: *
(49.0044°N, 9.5056°E)
Time: 22:15:15
(UTC+00:00)

COSMO-SKYMED 1 - Pass Details

Date: 22 September 2019
Orbit: 621 x 623 km, 97.9° (Epoch: 16 October)

Event Time Altitude Azimuth Distance (km) Brightness Sun altitude
Rises 17:42:58 0° 12° (NNE) 2,915 5.9 -4.5°
Reaches altitude 10° 17:45:10 10° 12° (NNE) 2,004 5.1 -4.8°
Maximum altitude 17:49:31 81° 287° (WNW) 637 2.8 -5.5°
Drops below altitude 10° 17:53:51 10° 199° (SSW) 1,987 5.3 -6.2°
Sets 17:56:02 0° 198° (SSW) 2,888 6.1 -6.6°
